This is the latest recevied weather packets stored in our database for station/object N3FAA. If no packets are shown the sender has not sent any weather packets the latest 10 day(s).
| Time | Temp. | Humidity | Pressure | Rain* | Wind** | Luminosity | Snow |
|---|---|---|---|---|---|---|---|
| 1777703490 | 16.67° C | 44% | 1010.9 hPa | 0 mm | - | 0 W/m² | - |
| 1777703187 | 16.11° C | 44% | 1011.3 hPa | 0 mm | - | 0 W/m² | - |
| 1777702884 | 16.67° C | 42% | 1011.1 hPa | 0 mm | - | 0 W/m² | - |
| 1777702582 | 16.11° C | 43% | 1011 hPa | 0 mm | - | 0 W/m² | - |
| 1777702280 | 16.11° C | 41% | 1011.1 hPa | 0 mm | - | 0 W/m² | - |
| 1777701979 | 16.11° C | 39% | 1011.4 hPa | 0 mm | - | 0 W/m² | - |
| 1777701676 | 16.11° C | 39% | 1011.1 hPa | 0 mm | - | 0 W/m² | - |
| 1777701374 | 16.11° C | 39% | 1011.4 hPa | 0 mm | - | 0 W/m² | - |
| 1777701072 | 16.11° C | 38% | 1011.3 hPa | 0 mm | - | 0 W/m² | - |
| 1777700771 | 16.11° C | 38% | 1011.6 hPa | 0 mm | - | 0 W/m² | - |
| 1777700468 | 16.11° C | 39% | 1011.1 hPa | 0 mm | - | 0 W/m² | - |
| 1777700165 | 15.56° C | 38% | 1011.3 hPa | 0 mm | - | 0 W/m² | - |
| 1777699862 | 16.11° C | 36% | 1011.1 hPa | 0 mm | - | 0 W/m² | - |
| 1777699561 | 17.22° C | 35% | 1011 hPa | 0 mm | - | 0 W/m² | - |
| 1777699259 | 17.22° C | 34% | 1011.3 hPa | 0 mm | - | 0 W/m² | - |
| 1777698956 | 17.78° C | 33% | 1011 hPa | 0 mm | - | 0 W/m² | - |
| 1777698654 | 17.78° C | 33% | 1010.9 hPa | 0 mm | - | 0 W/m² | - |
| 1777698349 | 17.78° C | 33% | 1011 hPa | 0 mm | - | 0 W/m² | - |
| 1777698047 | 18.33° C | 32% | 1011 hPa | 0 mm | - | 0 W/m² | - |
| 1777697743 | 18.33° C | 31% | 1010.8 hPa | 0 mm | - | 0 W/m² | - |
| 1777697441 | 18.89° C | 30% | 1010.9 hPa | 0 mm | - | 0 W/m² | - |
| 1777697137 | 18.33° C | 31% | 1010.9 hPa | 0 mm | - | 0 W/m² | - |
| 1777696833 | 17.78° C | 32% | 1010.9 hPa | 0 mm | - | 0 W/m² | - |
| 1777696531 | 18.33° C | 32% | 1010.8 hPa | 0 mm | - | 0 W/m² | - |
| 1777696227 | 18.89° C | 31% | 1010.8 hPa | 0 mm | - | 0 W/m² | - |
* Rain latest hour (hover to see other rain measurements)
** Current wind speed in m/s (hover to see current wind gust speed)